Weather in Granitny

Russia / Chelyabinsk Oblast     52°58′28″N   58°58′02″E
temp.,
°C
wind,
m/s
gust,
m/s
humid.,
%
clouds,
%
prec.,
mm/h
press.,
hPa
HPBL,
m
14 may, fri
fri1423:00+19w22335 0.0 102611
02:00+16w22445 0.0 102611
05:00+15wnw11542 0.0 102711
08:00+20wsw11450 0.0 1027154
11:00+26sw33270 0.0 10271123
14:00+28sw44220 0.0 10252444
17:00+28wsw44210 0.0 10252241
20:00+24sw33300 0.0 102528
15 may, sat
sat1523:00+19wnw47430 0.0 102589
02:00+17wnw33450 0.0 102534
05:00+16w11490 0.0 102611
08:00+20wsw22410 0.0 1026171
11:00+26wsw32270 0.0 10251352
14:00+28wnw33214 0.0 10242149
17:00+29nw23235 0.0 10232555
20:00+26ssw22308 0.0 102211
16 may, sun
sun1623:00+20ne494911 0.4 1023152
02:00+18wnw11562 0.0 102311
05:00+17nnw11554 0.0 102311
08:00+22nw11440 0.0 1024187
11:00+27wsw11305 0.0 1023964
14:00+30w12245 0.0 10222988
17:00+30wnw332265 0.0 10213247
20:00+26wnw343495 0.0 102061
17 may, mon
mon1723:00+21nnw2247100 0.0 102125
02:00+19nw115170 0.0 102211
05:00+18w125398 0.0 102211
08:00+22w23415 0.0 1022200
11:00+27wnw23290 0.0 10211361
14:00+30w45228 0.0 10203482
17:00+27w873099 0.0 10191038
20:00+20wnw71355100 0.4 1019250
18 may, tue
tue1823:00+18sw115845 0.4 101913
02:00+17wsw22638 0.1 102012
05:00+16nw226198 0.1 101913
08:00+21wnw22485 0.0 1019189
11:00+27n33332 0.0 10181400
14:00+29nnw332582 0.0 10173414
17:00+30nw342113 0.0 10163491
20:00+24nne3440100 0.0 101673